Theta_e
314 315 315 325 328 325 324 323 322 322 324 322 326 324 324 322 323 329 336 340 340 340 339 333 334 332 334 334 332 329 324 319 316 314 311 311 312 313 313 317 329 328 331 331 328 324 316 313 311
314 314 322 325 326 325 323 322 321 322 323 321 321 323 323 327 328 332 339 339 340 340 338 334 334 331 334 335 334 331 326 321 319 317 313 311 310 311 311 312 323 327 330 329 328 321 316 313 309
314 317 325 326 325 325 322 322 322 321 322 321 322 323 324 326 329 334 339 339 340 340 339 337 334 330 333 334 334 332 328 324 321 323 322 317 312 309 309 310 312 327 329 328 323 316 315 310 308
320 321 321 324 325 323 322 321 321 322 319 319 322 323 324 327 332 334 339 339 339 339 339 334 333 330 332 334 334 333 330 326 324 325 324 322 318 313 309 307 308 310 325 323 313 314 312 308 307
320 323 324 324 323 322 321 320 320 322 320 320 321 323 324 325 330 333 340 339 339 339 339 333 332 331 332 333 333 333 332 328 326 326 325 324 322 318 313 309 306 305 307 308 310 310 308 306 306
321 322 324 324 323 322 321 319 320 321 320 321 321 321 324 326 329 333 339 340 339 340 339 334 332 331 332 333 333 332 332 331 327 327 326 324 323 320 315 312 309 306 305 305 306 306 305 305 305
323 323 323 324 322 321 321 319 321 321 319 319 320 321 324 325 326 331 336 337 338 339 340 337 333 332 332 333 333 332 333 332 328 328 327 325 324 322 318 315 313 309 306 305 304 304 304 304 304
321 322 322 323 322 321 320 319 320 320 319 318 320 321 321 323 327 330 334 334 337 338 338 339 334 333 333 332 332 332 333 332 330 328 328 326 325 324 321 318 316 314 311 308 305 304 303 303 303
317 321 321 321 321 321 319 320 317 318 319 318 320 320 321 325 328 332 334 335 336 338 338 339 338 338 338 334 333 332 332 332 331 329 329 327 326 325 324 322 320 318 316 314 312 310 308 308 307
319 321 321 321 320 320 319 319 319 317 318 318 318 318 317 326 327 331 333 334 335 337 339 338 339 339 340 339 334 332 333 332 331 330 329 327 326 326 325 324 323 321 320 318 317 316 314 314 313
319 321 320 318 317 317 318 318 318 318 320 319 319 319 317 319 327 329 332 332 334 336 337 339 338 337 336 338 334 333 332 332 332 331 329 328 326 325 325 324 324 323 322 321 319 318 317 316 316
316 316 316 317 315 316 317 317 317 317 319 318 318 319 318 321 326 328 330 331 333 334 335 337 339 336 335 336 334 332 332 331 331 332 330 328 326 326 325 325 324 323 322 322 321 319 318 317 317
316 316 314 315 315 316 315 317 318 318 318 317 316 316 318 319 324 326 328 330 331 333 335 335 334 334 334 334 334 333 332 332 331 331 329 328 327 327 325 326 324 323 323 322 322 321 320 318 317
317 316 316 316 316 315 315 317 315 317 317 317 317 316 316 317 319 323 326 329 330 333 334 334 332 329 331 331 331 330 331 332 331 332 332 329 329 328 325 327 326 325 323 322 321 321 320 319 318
316 318 317 317 317 317 316 317 317 316 316 316 317 316 316 316 317 319 323 327 330 331 331 332 326 326 328 332 331 331 330 330 332 333 333 332 331 330 328 328 328 326 325 323 322 321 321 319 317
317 318 317 318 317 316 317 317 319 317 318 317 317 317 317 317 316 317 320 324 326 330 329 330 325 326 328 328 328 330 330 330 330 332 330 331 332 331 331 329 329 327 326 324 323 322 320 319 316
318 316 318 318 316 317 318 319 319 316 316 317 317 318 318 317 317 316 317 320 320 327 327 325 322 324 327 330 330 330 329 328 329 329 329 329 330 331 330 330 330 328 327 325 324 323 320 320 316
317 318 317 318 317 316 318 318 318 317 317 317 317 317 317 318 318 317 316 315 318 321 322 321 321 322 327 330 330 331 330 327 326 330 328 329 328 328 329 330 329 329 327 327 325 323 320 319 316
316 316 316 316 316 315 316 316 317 317 317 317 317 317 317 317 317 318 317 316 315 315 317 318 321 322 325 327 327 326 325 321 321 323 328 326 328 327 329 328 329 327 326 326 325 323 320 319 315
316 316 316 316 317 314 316 316 317 317 317 317 317 317 317 317 317 317 317 316 317 316 315 315 317 319 321 322 321 319 317 316 315 318 324 324 327 325 327 327 328 325 325 324 324 322 319 317 316
315 316 316 316 316 315 316 317 318 318 317 317 317 317 317 317 317 317 317 316 316 316 316 316 315 315 317 318 317 316 315 313 313 312 314 323 325 327 328 329 328 327 324 325 324 321 321 320 316
315 315 316 315 316 315 316 316 316 316 317 318 317 317 317 317 317 317 316 317 316 315 314 315 315 314 314 315 315 315 314 313 312 311 312 313 314 328 326 326 324 324 326 321 323 322 320 320 319
316 315 315 315 316 317 316 316 316 317 317 317 317 318 318 318 318 317 316 315 315 314 314 314 314 313 313 313 313 313 313 311 311 311 311 311 312 326 325 323 326 326 323 319 322 321 321 319 316
314 315 316 316 316 316 315 316 316 317 318 318 318 318 317 316 316 316 315 314 313 312 312 312 312 312 312 312 312 312 312 311 311 311 311 311 314 318 319 319 322 324 323 324 322 322 320 320 316
315 315 315 317 319 318 316 317 317 317 317 317 317 317 317 315 314 315 316 316 315 313 313 312 312 311 311 312 312 311 311 311 311 311 311 311 313 315 315 322 321 321 322 321 320 320 320 319 317
315 316 318 324 319 318 313 316 316 317 316 316 316 316 316 315 314 313 314 315 315 315 315 313 313 312 311 311 311 311 310 310 310 310 310 310 312 315 316 316 319 321 320 320 320 319 319 318 315
315 316 316 317 316 316 315 316 317 317 316 316 316 316 316 316 315 314 313 313 315 315 315 314 313 312 311 311 310 310 310 309 310 310 309 310 312 311 314 318 319 318 320 319 320 319 318 315 313
314 314 315 315 323 320 316 317 317 318 318 318 317 316 316 315 315 315 314 315 315 315 315 315 314 314 312 311 311 310 309 309 309 309 309 310 311 311 315 315 317 318 318 318 318 316 316 313 310
313 313 314 315 316 319 319 317 318 319 318 318 318 316 315 315 315 314 315 315 315 316 316 316 316 316 314 313 311 310 309 308 308 308 309 309 310 311 314 315 316 316 316 316 316 315 315 309 305
313 314 314 316 317 315 316 318 317 318 316 315 316 315 314 313 314 314 315 315 316 316 317 316 317 316 315 314 313 311 310 308 308 308 308 309 310 311 312 314 314 315 316 316 315 310 309 302 302
Wind_Speed
3 2 2 2 6 4 1 4 2 5 5 4 3 1 5 6 7 4 11 12 16 19 17 17 13 13 11 9 8 7 8 10 10 11 12 12 11 11 11 13 15 15 16 13 11 14 14 15 15
2 2 1 4 6 4 5 5 5 6 6 5 4 4 2 5 4 7 17 15 17 18 17 17 15 14 12 9 7 7 8 8 9 10 11 11 10 10 11 11 14 17 13 10 12 12 13 14 15
2 2 5 3 4 4 4 2 4 7 6 5 3 3 2 3 4 13 9 18 18 17 16 17 16 15 12 10 7 7 7 7 9 9 9 9 9 9 9 10 11 17 13 10 9 12 12 13 15
1 2 4 7 4 2 4 1 5 9 4 4 2 4 2 4 11 9 15 19 17 16 16 17 16 15 12 10 8 6 6 7 8 8 8 8 8 8 8 8 8 10 12 10 9 10 11 12 14
3 4 7 5 4 3 1 1 6 8 6 6 6 2 1 5 10 12 17 19 18 18 18 18 17 15 13 12 10 7 6 6 6 7 7 7 7 7 8 8 8 7 6 7 9 10 10 12 13
7 5 7 8 3 1 2 5 8 9 5 5 5 4 3 8 12 14 16 18 17 17 17 19 17 16 14 13 11 9 7 7 6 6 6 6 6 7 8 8 8 7 7 8 9 10 11 12 13
9 7 11 6 5 4 3 7 9 10 8 7 2 5 4 12 13 15 16 17 17 18 18 18 19 17 15 13 12 11 10 8 7 6 5 5 7 7 8 8 8 8 8 8 9 9 10 11 12
4 7 13 9 8 5 5 9 5 10 8 5 3 3 4 12 16 15 15 17 18 21 18 17 17 19 18 16 14 12 11 10 8 7 5 5 7 8 9 9 9 8 9 9 9 9 10 10 11
3 6 10 12 7 9 6 10 5 6 8 5 6 3 4 13 15 16 17 18 19 21 20 18 19 18 18 16 16 13 11 11 10 9 6 6 6 8 8 9 9 9 9 9 10 10 10 11 12
8 10 13 4 5 6 7 11 8 7 13 13 11 10 9 12 16 19 20 21 22 22 21 21 21 20 19 18 16 13 13 12 13 12 9 4 4 4 6 7 7 7 7 8 9 9 10 11 12
5 10 5 3 4 2 5 9 7 9 12 13 14 14 15 14 18 19 20 20 22 22 21 22 21 21 20 21 20 18 17 16 16 17 12 9 7 6 7 4 2 2 5 4 6 8 9 9 9
6 7 5 2 2 2 6 4 8 16 18 4 9 7 18 19 20 22 23 22 22 23 23 24 22 22 22 22 23 21 20 20 20 19 15 13 12 9 10 10 6 5 3 2 2 4 7 8 8
7 4 4 2 2 4 3 9 11 16 18 16 14 13 16 18 21 21 22 22 23 25 26 26 28 31 27 25 20 21 23 23 21 22 18 18 17 14 14 12 10 9 7 7 5 7 7 8 9
2 5 5 4 5 5 5 11 3 7 12 19 18 18 16 19 21 21 23 25 27 26 27 26 28 31 30 29 28 27 23 22 25 26 25 23 21 18 15 15 14 13 12 12 12 9 9 9 9
2 5 7 10 7 4 3 11 16 21 14 10 17 20 19 21 21 24 25 26 27 29 27 29 32 32 31 32 29 30 29 26 23 27 27 27 26 22 21 19 18 17 17 16 16 14 10 10 10
4 4 8 5 7 4 5 14 6 4 14 18 19 19 20 21 24 24 24 26 27 28 29 30 35 35 35 33 31 32 28 33 32 26 25 26 28 25 25 24 23 21 21 20 19 17 12 10 14
6 9 10 8 7 2 11 10 2 3 8 15 14 17 19 22 24 25 26 28 28 29 31 34 36 37 37 36 35 34 34 34 34 34 31 28 29 28 28 28 27 27 27 23 21 19 16 14 17
12 9 9 10 5 6 11 17 17 20 19 20 21 22 23 23 23 25 27 30 30 31 34 35 37 38 38 38 37 36 36 38 39 41 36 35 34 32 31 31 31 31 31 26 25 25 21 17 19
5 7 9 8 6 3 13 19 19 22 25 27 27 27 29 29 26 23 25 29 33 34 36 37 38 40 40 40 40 40 40 41 39 39 43 38 39 36 34 35 35 28 33 31 28 26 27 24 25
9 13 15 14 2 3 14 22 20 20 27 28 28 31 32 30 26 25 27 30 34 35 37 39 40 40 41 41 40 38 36 38 38 40 39 40 40 40 40 37 38 31 35 32 32 32 31 27 27
14 16 14 15 4 13 13 16 18 16 20 22 27 33 33 29 25 24 26 33 35 37 38 38 40 41 41 40 38 36 35 36 39 38 41 43 42 43 41 38 38 41 40 36 36 38 34 29 30
16 14 14 13 8 8 1 10 17 20 19 16 23 28 29 25 22 20 24 27 32 35 36 39 40 41 41 41 41 41 41 39 36 35 38 41 42 44 43 41 41 39 42 40 36 41 40 31 34
4 3 6 7 9 12 14 8 9 13 13 14 21 23 21 18 17 16 18 23 29 29 30 34 39 40 41 42 41 42 41 37 33 33 36 38 38 40 43 42 41 44 38 43 36 47 43 37 39
10 7 4 1 4 9 14 15 11 14 15 9 12 13 7 7 7 8 11 16 19 22 26 28 33 37 37 39 40 42 39 37 35 36 37 39 37 39 41 42 42 39 43 44 45 45 46 35 40
10 7 4 5 6 11 4 8 14 3 12 12 13 17 7 9 7 7 6 7 10 15 18 23 27 30 33 37 37 39 38 35 35 37 36 33 37 39 38 41 40 43 42 41 49 47 40 36 41
15 14 7 7 8 12 4 10 6 5 7 14 16 22 17 14 13 13 13 12 12 11 12 15 20 25 29 32 36 37 38 37 38 36 36 35 34 36 37 38 38 36 37 33 39 42 39 42 40
8 10 11 11 2 5 9 19 20 12 12 19 18 21 20 13 12 10 13 14 11 10 10 10 12 15 21 26 30 33 36 36 39 36 36 35 35 36 38 36 37 41 37 41 41 43 40 42 42
9 4 7 7 6 10 13 16 14 9 12 10 8 15 17 13 10 10 8 7 7 6 5 4 5 7 13 19 24 26 31 34 37 36 37 35 35 36 33 35 37 36 42 47 45 42 40 41 38
8 9 7 5 8 6 11 11 5 7 6 5 8 6 7 10 7 8 8 8 8 6 6 5 2 6 10 14 18 22 26 30 33 35 35 34 34 33 35 34 36 38 40 41 45 42 41 40 41
12 19 22 9 8 8 12 19 4 6 4 4 7 5 5 6 6 8 8 7 6 5 5 5 7 10 12 13 16 19 22 27 31 34 33 33 32 31 32 35 37 38 42 44 45 43 41 42 44
Wind_Direction
258 283 302 288 248 238 141 140 39 132 150 98 139 219 2 17 3 31 147 155 159 160 179 173 167 162 156 150 137 109 87 85 82 84 87 93 97 101 99 100 101 102 104 102 97 95 96 90 86
217 242 295 273 266 256 97 113 182 158 85 149 164 212 256 80 70 128 150 154 158 161 171 172 170 168 167 161 141 117 102 95 91 86 84 85 91 97 103 103 104 96 105 110 100 97 90 84 85
191 189 262 263 285 317 13 158 158 112 138 175 185 232 350 81 133 146 165 156 158 164 169 186 173 173 172 168 157 129 120 110 101 93 84 81 85 92 100 107 112 116 117 118 118 94 87 85 89
205 235 241 258 290 9 332 107 131 149 158 183 237 202 141 156 152 170 163 160 162 166 170 185 176 176 178 177 173 150 131 116 112 101 88 86 89 94 94 99 106 115 125 127 91 91 87 86 91
208 236 252 243 288 309 217 112 176 180 160 179 195 172 172 171 179 160 161 166 169 172 178 182 181 182 183 184 186 172 153 141 132 112 96 84 85 91 97 99 102 109 118 92 93 93 91 92 92
215 263 241 240 210 156 218 183 193 199 183 149 210 233 151 181 169 166 169 173 177 183 187 185 185 187 190 190 191 188 175 162 152 129 108 90 89 92 97 102 102 102 96 95 95 95 94 94 95
250 229 248 286 287 257 221 180 202 208 197 210 272 237 123 178 175 177 180 179 185 193 187 187 189 190 193 194 196 194 188 179 170 151 122 98 92 91 93 96 98 102 103 103 101 98 97 98 97
235 260 250 247 265 271 147 177 210 217 221 192 205 254 201 188 181 176 182 186 189 195 189 185 191 196 198 196 199 199 195 192 188 175 154 126 112 100 95 97 98 102 105 105 103 101 98 99 99
198 243 242 244 251 262 155 201 192 210 221 200 213 258 179 170 178 175 181 187 193 198 194 192 191 194 197 202 200 200 202 201 198 191 175 148 135 120 104 93 88 88 94 100 103 103 103 105 109
220 230 245 312 282 280 194 218 193 206 216 228 229 222 218 189 184 185 188 193 196 199 200 200 199 197 198 199 199 200 199 211 212 203 197 191 171 151 132 107 90 88 90 101 109 113 118 122 120
201 241 290 256 254 255 233 227 217 228 244 231 233 221 218 203 195 198 201 203 201 201 203 202 203 201 202 207 205 205 210 214 212 205 200 219 220 213 186 184 150 116 116 99 125 136 140 141 137
233 248 263 330 219 202 219 263 237 231 239 256 245 238 210 207 205 206 208 208 207 205 206 204 203 208 211 216 213 209 218 210 213 208 213 216 226 229 224 212 219 204 191 140 158 169 159 155 152
231 232 223 230 216 241 275 246 257 256 246 245 244 227 211 214 217 217 215 214 212 210 208 212 207 208 209 213 213 217 222 219 218 222 229 227 223 225 226 221 224 223 219 239 245 216 200 181 171
86 236 241 235 228 241 254 264 285 257 242 240 235 236 227 223 224 222 218 216 213 213 212 211 215 219 212 216 219 227 224 228 228 226 223 225 226 224 232 231 227 226 217 216 206 208 212 198 188
184 256 228 232 225 234 241 252 240 255 249 244 237 242 237 233 231 225 224 220 218 218 216 215 220 220 218 217 219 221 226 231 233 229 227 227 227 229 227 235 229 229 223 218 222 211 214 223 201
228 245 249 123 184 197 203 262 267 255 243 252 252 250 246 242 235 234 226 227 221 220 218 220 226 225 224 222 221 224 221 231 228 228 226 233 231 232 232 231 236 234 226 225 221 221 221 230 194
204 259 218 236 196 202 212 277 272 280 248 262 263 258 255 252 243 237 230 228 230 221 222 224 229 228 229 227 227 229 229 230 231 233 237 237 237 238 237 236 235 234 228 225 225 226 221 236 208
237 227 238 253 144 227 247 256 269 272 266 265 268 266 261 256 248 239 237 236 230 226 227 228 230 231 230 230 230 233 232 234 234 228 232 235 240 240 238 239 241 241 228 230 231 230 219 219 209
282 280 264 264 135 263 263 273 271 273 270 267 267 265 263 257 254 243 234 241 235 232 231 230 228 231 228 229 231 232 234 239 237 235 228 232 235 239 237 239 242 246 224 230 235 223 213 209 207
236 258 260 271 265 235 280 281 279 271 264 260 263 265 263 265 257 243 234 235 239 237 236 233 232 232 231 233 235 235 236 242 242 238 232 227 232 235 237 238 243 249 225 237 242 221 206 211 217
236 243 256 261 267 239 280 275 268 254 249 262 261 259 262 261 260 250 236 236 241 236 234 237 237 235 235 233 233 233 235 239 242 240 234 231 228 232 232 235 239 250 231 239 229 221 224 225 214
250 249 253 268 282 275 197 286 289 290 273 244 254 261 264 266 262 254 241 239 245 250 244 239 237 235 235 234 232 234 239 242 248 244 238 235 234 230 234 231 232 241 223 245 230 229 224 228 225
248 37 225 250 258 290 243 262 261 257 260 250 254 258 263 265 259 254 245 243 242 247 244 238 235 233 232 232 233 236 240 242 244 241 241 236 233 226 230 234 233 229 236 243 238 223 231 226 223
135 119 108 203 278 264 256 242 261 249 250 259 256 262 270 239 250 261 248 232 236 234 238 236 232 231 229 231 232 235 238 237 238 242 241 238 233 230 231 236 234 233 242 239 236 230 227 229 230
196 177 224 236 203 253 8 280 245 252 297 278 268 278 258 265 261 257 261 257 250 242 240 231 229 230 231 233 233 235 236 236 238 240 245 242 235 233 233 229 239 235 236 246 235 223 223 241 233
198 202 211 231 238 266 95 239 253 211 262 268 263 266 272 266 263 256 256 256 263 253 247 239 236 233 232 235 236 236 237 236 241 243 245 245 240 240 239 238 234 238 240 231 229 224 232 234 229
173 218 250 276 350 286 254 265 274 231 237 248 258 258 269 271 263 261 244 248 241 233 230 236 243 240 238 240 242 240 239 237 238 243 244 243 241 244 235 232 237 244 229 232 228 232 236 233 228
227 195 201 216 232 240 258 262 262 274 256 269 238 255 283 278 256 249 229 224 209 202 196 205 234 253 250 250 251 248 244 240 240 242 244 244 243 243 230 232 233 234 238 231 231 232 235 233 229
190 215 221 233 225 242 261 261 334 43 36 322 318 308 278 277 231 224 201 187 173 169 170 166 209 256 254 253 253 250 247 243 242 241 244 246 245 240 232 230 233 237 232 235 235 229 233 228 225
253 221 211 213 205 235 260 267 136 99 60 356 327 315 308 286 216 198 196 181 168 172 194 236 273 280 277 271 265 260 253 246 242 243 247 249 246 242 236 240 239 242 237 236 229 228 230 225 223